This is the latest recevied weather packets stored in our database for station/object NQ9F. If no packets are shown the sender has not sent any weather packets the latest 10 day(s).
| Time | Temp. | Humidity | Pressure | Rain* | Wind** | Luminosity | Snow |
|---|---|---|---|---|---|---|---|
| 1777382107 | 24.44° C | 93% | 1011.4 hPa | 0 mm | - | 51 W/m² | - |
| 1777381803 | 24.44° C | 93% | 1011.5 hPa | 0 mm | - | 56 W/m² | - |
| 1777381497 | 24.44° C | 93% | 1011.4 hPa | 0 mm | - | 57 W/m² | - |
| 1777381193 | 24.44° C | 93% | 1011.2 hPa | 0 mm | - | 55 W/m² | - |
| 1777380890 | 24.44° C | 92% | 1011.3 hPa | 0 mm | - | 49 W/m² | - |
| 1777380588 | 24.44° C | 92% | 1011.2 hPa | 0 mm | - | 38 W/m² | - |
| 1777380283 | 24.44° C | 92% | 1011.3 hPa | 0 mm | - | 43 W/m² | - |
| 1777379980 | 24.44° C | 92% | 1011.3 hPa | 0 mm | - | 42 W/m² | - |
| 1777379676 | 24.44° C | 92% | 1011.3 hPa | 0 mm | - | 41 W/m² | - |
| 1777379371 | 24.44° C | 91% | 1011.3 hPa | 0 mm | - | 21 W/m² | - |
| 1777379067 | 24.44° C | 92% | 1011.1 hPa | 0 mm | - | 15 W/m² | - |
| 1777378762 | 24.44° C | 91% | 1011 hPa | 0 mm | - | 11 W/m² | - |
| 1777378460 | 24.44° C | 91% | 1011 hPa | 0 mm | - | 9 W/m² | - |
| 1777378155 | 24.44° C | 92% | 1010.9 hPa | 0 mm | - | 7 W/m² | - |
| 1777377852 | 24.44° C | 92% | 1010.8 hPa | 0 mm | - | 5 W/m² | - |
| 1777377548 | 24.44° C | 92% | 1010.7 hPa | 0 mm | - | 4 W/m² | - |
| 1777377243 | 24.44° C | 92% | 1010.7 hPa | 0 mm | - | 2 W/m² | - |
| 1777376941 | 24.44° C | 92% | 1010.9 hPa | 0 mm | - | 1 W/m² | - |
| 1777376637 | 24.44° C | 92% | 1010.6 hPa | 0 mm | - | 0 W/m² | - |
| 1777376335 | 24.44° C | 92% | 1010.4 hPa | 0 mm | - | 0 W/m² | - |
| 1777376029 | 24.44° C | 93% | 1010.3 hPa | 0 mm | - | 0 W/m² | - |
| 1777375729 | 24.44° C | 93% | 1010.2 hPa | 0 mm | - | 0 W/m² | - |
| 1777375424 | 24.44° C | 93% | 1010.2 hPa | 0 mm | - | 0 W/m² | - |
| 1777375122 | 24.44° C | 93% | 1010.1 hPa | 0 mm | - | 0 W/m² | - |
| 1777374821 | 24.44° C | 93% | 1010 hPa | 0 mm | - | 0 W/m² | - |
* Rain latest hour (hover to see other rain measurements)
** Current wind speed in m/s (hover to see current wind gust speed)